Tucson, AZ

12:35 AM MST on September 19, 2019 (GMT -0700)
Tucson International

Weather History for KTUS - July, 2019

Change the Weather History Date:

Saturday, July 27, 2019

  Actual Average Record
Temperature  
Mean Temperature 95 °F 86 °F  
Max Temperature 108 °F 98 °F 113 °F (1995)
Min Temperature 82 °F 74 °F 59 °F (1913)
Degree Days  
Heating Degree Days 0 0  
Month to date heating degree days 0 0  
Since 1 June heating degree days 0 0  
Since 1 July heating degree days 0 0  
Cooling Degree Days 30 21  
Month to date cooling degree days 693 602  
Year to date cooling degree days 1678 1698  
Since 1 June cooling degree days 1306 1196  
Growing Degree Days 45 (Base 50)    
Moisture  
Dew Point 57 °F    
Average Humidity 30    
Maximum Humidity 51    
Minimum Humidity 11    
Precipitation  
Precipitation 0.00 in 0.09 in 1.84 in (1945)
Month to date precipitation 0.56 1.86  
Year to date precipitation 5.59 5.13  
Sea Level Pressure  
Sea Level Pressure 29.85 in    
Wind  
Wind Speed 9 mph (West)    
Max Wind Speed 17 mph    
Max Gust Speed 23 mph    
Visibility 10 miles    
Events      
T = Trace of Precipitation, MM = Missing Value Source: NWS Daily Summary

Daily Weather History Graph

Daily Weather History Graph

Search for Another Location

Airport or City:

Astronomy

Jul. 27, 2019 Rise Set
Actual Time 5:35 AM MST 7:24 PM MST
Civil Twilight 5:08 AM MST 7:51 PM MST
Nautical Twilight 4:35 AM MST 8:24 PM MST
Astronomical Twilight 4:01 AM MST 8:58 PM MST
Moon 1:20 AM MST (7/27) 3:20 PM MST (7/27)
Length of Visible Light 14h 43m
Length of Day
13h 49m
Waning Crescent, 23% of the Moon is Illuminated
Jul 27
Waning Crescent
Jul 31
New
Aug 7
First Quarter
Aug 15
Full
Aug 23
Last Quarter

Hourly Weather History & Observations

Time (MST) Temp. Heat Index Dew Point Humidity Pressure Visibility Wind Dir Wind Speed Gust Speed Precip Events Conditions
12:53 AM 87.1 °F 87.0 °F 61.0 °F 41% 29.88 in 10.0 mi North - - N/A   Clear
1:53 AM 87.1 °F 86.7 °F 60.1 °F 40% 29.87 in 10.0 mi WSW 4.6 mph - N/A   Clear
2:53 AM 84.0 °F 84.4 °F 61.0 °F 46% 29.88 in 10.0 mi North - - N/A   Clear
3:53 AM 82.9 °F 83.7 °F 62.1 °F 49% 29.88 in 10.0 mi SSE 8.1 mph - N/A   Clear
4:53 AM 82.9 °F 83.7 °F 62.1 °F 49% 29.88 in 10.0 mi SSE 5.8 mph - N/A   Clear
5:53 AM 82.0 °F 83.0 °F 62.1 °F 51% 29.89 in 10.0 mi SSE 5.8 mph - N/A   Clear
6:53 AM 84.0 °F 84.9 °F 63.0 °F 49% 29.91 in 10.0 mi SSE 5.8 mph - N/A   Clear
7:53 AM 88.0 °F 87.9 °F 61.0 °F 40% 29.92 in 10.0 mi SSW 4.6 mph - N/A   Clear
8:53 AM 91.9 °F 90.8 °F 57.9 °F 32% 29.92 in 10.0 mi West 3.5 mph - N/A   Clear
9:53 AM 97.0 °F 96.1 °F 57.9 °F 27% 29.91 in 10.0 mi North 6.9 mph - N/A   Clear
10:53 AM 100.0 °F 99.2 °F 57.0 °F 24% 29.90 in 10.0 mi SW 4.6 mph - N/A   Clear
11:53 AM 102.0 °F 101.1 °F 55.9 °F 22% 29.87 in 10.0 mi NNW 5.8 mph - N/A   Clear
12:53 PM 105.1 °F 103.3 °F 54.0 °F 18% 29.84 in 10.0 mi NW 9.2 mph - N/A   Clear
1:53 PM 107.1 °F - 52.0 °F 16% 29.82 in 10.0 mi NW 11.5 mph 18.4 mph N/A   Clear
2:53 PM 107.1 °F - 51.1 °F 16% 29.79 in 10.0 mi WNW 12.7 mph - N/A   Clear
3:53 PM 105.1 °F 103.3 °F 53.1 °F 18% 29.77 in 10.0 mi NW 12.7 mph 19.6 mph N/A   Clear
4:53 PM 105.1 °F 103.3 °F 53.1 °F 18% 29.76 in 10.0 mi NNW 16.1 mph 23.0 mph N/A   Partly Cloudy
5:53 PM 102.9 °F - 50.0 °F 17% 29.77 in 10.0 mi NNW 17.3 mph 23.0 mph N/A   Partly Cloudy
6:53 PM 102.0 °F 99.7 °F 53.1 °F 19% 29.78 in 10.0 mi North - - N/A   Clear
7:53 PM 99.0 °F 96.9 °F 54.0 °F 22% 29.80 in 10.0 mi North - - N/A   Partly Cloudy